SCP
1 1 1 1 1 1 1 1 1 1 1 0 0 0 0 1 1 1 1 1 1 1 1 1 0 0 0 0 0 0 0 0 0 0 0 0 0 0 0 0 0 0 0
1 1 1 1 1 1 1 1 1 1 1 1 1 1 1 1 1 1 1 1 1 1 1 1 1 0 0 0 0 0 0 0 0 0 0 0 0 0 0 0 0 0 0
1 1 1 1 1 1 1 1 1 1 1 1 1 1 1 1 1 1 1 1 1 1 1 1 1 1 0 0 0 0 0 0 0 1 0 0 0 0 0 0 0 0 0
0 1 1 1 1 1 1 1 1 1 1 1 1 1 1 1 1 1 1 1 1 1 1 1 1 1 1 0 0 0 0 0 0 1 1 0 0 0 0 0 0 0 0
0 1 1 1 1 1 1 1 1 1 1 1 1 1 1 1 1 1 1 1 1 1 1 1 1 1 1 1 1 0 0 0 0 0 0 0 1 0 0 0 0 0 0
0 0 1 1 1 1 1 1 1 1 1 1 1 1 1 1 1 1 1 1 1 1 1 1 1 1 1 1 1 1 1 1 1 1 1 1 1 0 0 0 0 0 0
0 0 0 1 1 1 1 1 1 1 1 1 1 1 1 1 1 1 1 1 1 1 1 1 1 1 1 1 1 1 1 1 1 1 1 1 1 1 0 0 0 0 0
0 0 0 1 1 1 1 1 1 1 1 1 1 1 1 1 1 1 1 1 1 1 1 1 1 1 1 1 1 1 1 1 1 1 1 1 1 1 1 1 0 0 0
0 0 0 0 1 1 1 1 1 1 1 1 1 1 1 1 1 1 1 0 1 1 1 1 1 1 1 1 1 1 1 1 1 1 1 1 1 1 1 1 1 0 0
0 0 0 0 0 0 1 1 1 1 2 1 1 1 1 1 1 1 1 1 1 1 1 1 1 1 1 1 1 1 1 1 1 1 1 1 1 1 1 1 1 1 1
0 0 0 0 0 0 0 1 1 1 2 2 2 1 1 1 1 1 1 1 1 1 1 1 1 1 1 1 1 1 1 1 1 1 1 1 1 1 1 1 1 1 1
0 0 0 0 0 0 0 0 1 1 1 1 1 2 1 1 1 1 1 1 1 1 1 1 1 1 1 1 1 1 1 1 1 1 1 1 1 1 1 1 1 1 1
0 0 0 0 0 0 0 0 0 0 1 1 1 1 1 1 1 1 1 1 1 1 1 1 1 1 1 1 1 1 1 1 1 1 1 1 1 1 1 1 1 1 1
0 0 0 0 0 0 0 0 0 0 0 1 1 1 1 1 1 1 1 1 1 1 1 1 1 1 1 1 1 1 1 1 0 1 1 1 1 1 1 1 1 1 1
0 0 0 0 0 0 0 0 0 0 0 0 1 1 1 1 1 1 1 1 1 1 0 1 1 1 1 1 1 1 1 1 0 0 1 1 1 1 1 1 1 1 1
0 0 0 0 0 0 0 0 0 0 0 0 0 1 1 1 1 1 1 1 1 1 0 1 1 1 1 1 1 1 1 1 0 0 0 1 1 1 1 1 1 1 1
0 0 0 0 0 0 0 0 0 0 0 0 0 0 1 1 1 1 1 1 1 1 1 1 1 1 1 1 1 1 1 1 1 0 0 0 1 1 1 1 1 0 1
0 0 0 0 0 0 0 0 0 0 0 0 0 0 0 0 0 1 1 1 1 1 1 1 1 1 1 1 1 1 1 1 1 1 0 0 0 0 0 0 0 0 0
0 0 0 0 0 0 0 0 0 0 0 0 0 0 0 0 0 0 1 1 1 1 1 1 1 1 1 1 1 1 1 1 1 1 0 0 0 0 0 0 0 0 0
0 0 0 0 0 0 0 0 0 0 0 0 0 0 0 0 0 0 1 1 1 1 1 1 1 1 1 1 2 1 1 1 1 1 1 0 0 0 0 0 0 0 0
0 0 0 0 0 0 0 0 0 0 0 0 0 0 0 0 0 0 1 1 1 1 1 1 1 1 1 1 1 1 1 1 1 1 1 1 0 0 0 0 0 0 0
0 0 0 0 0 0 0 0 0 0 0 0 0 0 0 0 0 0 0 1 1 1 1 0 0 0 1 1 1 1 1 1 1 1 1 1 1 0 0 0 0 0 0
0 0 0 0 0 0 0 0 0 0 0 0 0 0 0 0 0 0 0 0 1 1 0 0 0 0 0 0 1 1 1 1 1 1 1 1 1 1 1 0 0 0 0
0 0 0 0 0 0 0 0 0 0 0 0 0 0 0 0 0 0 0 0 0 0 0 0 0 0 0 0 0 1 1 1 1 1 1 1 1 1 1 0 0 0 0
0 0 0 0 0 0 0 0 0 0 0 0 0 0 0 0 0 0 0 0 0 0 0 0 0 0 0 0 0 0 1 1 1 1 1 1 1 1 1 0 0 0 0
0 0 0 0 0 0 0 0 0 0 0 0 0 0 0 0 0 0 0 0 0 0 0 0 0 0 0 0 0 0 0 1 1 1 1 1 0 0 0 0 0 0 0
Wind_Speed
3 3 3 3 4 4 4 3 3 4 5 5 4 4 4 4 4 4 6 12 13 12 10 9 8 7 6 6 6 5 6 7 8 9 10 10 10 10 10 10 10 9 8
3 3 3 3 4 4 5 5 5 4 4 3 4 4 5 3 3 5 7 9 13 13 11 11 10 9 8 7 7 6 6 7 8 9 10 10 11 11 10 10 9 9 8
3 2 2 2 3 4 5 5 5 4 4 3 4 4 4 4 3 3 7 7 8 11 12 12 11 10 10 9 9 8 7 7 8 10 10 11 11 11 10 10 9 8 8
5 2 2 2 3 3 4 4 4 4 4 3 3 3 3 4 5 4 3 7 7 8 10 13 12 11 11 10 10 10 9 9 9 10 11 11 10 11 10 10 9 8 7
6 4 2 2 3 2 2 4 4 4 4 5 4 4 3 4 4 5 4 5 6 8 8 11 14 13 12 11 11 11 11 11 10 11 11 11 11 11 10 10 9 8 7
6 5 3 3 3 2 2 3 3 4 4 5 5 5 4 4 4 5 5 4 3 6 8 10 9 9 13 12 12 12 12 12 12 12 12 12 11 11 11 10 10 9 8
6 5 4 3 3 2 3 3 3 4 4 4 3 3 3 4 5 4 4 4 3 3 5 9 9 7 7 13 13 13 13 14 14 14 14 13 12 12 11 11 11 10 9
5 6 5 4 3 2 3 3 2 2 3 3 3 3 3 3 5 6 4 5 5 3 4 8 8 9 9 7 10 15 13 13 15 15 15 14 13 13 12 12 12 11 10
4 4 5 5 5 3 2 3 3 2 2 3 4 3 3 4 3 3 6 6 5 4 3 4 7 7 8 9 9 14 15 14 15 16 16 15 14 14 13 13 12 12 10
4 4 5 5 4 3 3 4 2 2 2 3 3 4 4 2 2 2 3 5 6 6 5 4 4 5 6 7 10 15 18 16 16 17 17 16 16 16 15 14 13 12 11
3 4 4 5 4 3 4 4 4 3 2 3 3 2 3 3 4 3 3 3 4 4 4 4 3 3 4 4 6 13 20 18 17 16 17 17 17 17 16 15 14 13 13
3 5 5 5 4 4 4 4 4 4 3 3 3 3 3 3 3 4 4 3 3 4 4 4 4 4 4 5 7 14 19 19 18 17 15 15 16 17 17 17 16 15 14
3 4 5 4 4 4 4 4 4 4 4 4 4 3 4 4 3 3 3 3 3 3 3 4 5 4 4 3 5 14 17 19 19 18 16 15 14 15 16 17 17 17 16
2 3 4 5 4 4 5 4 3 4 4 4 4 4 3 4 4 4 4 3 3 3 3 5 3 5 4 4 6 14 12 19 19 18 17 16 15 14 14 15 16 16 16
4 4 4 5 5 4 4 4 3 4 4 4 4 5 4 3 4 4 4 4 4 4 5 5 4 4 4 4 8 8 8 16 18 18 18 17 16 15 14 14 14 13 13
5 4 4 4 5 4 4 4 4 5 5 5 4 5 4 3 3 3 4 4 4 5 4 3 4 4 4 5 9 8 8 16 19 18 18 17 17 16 15 14 14 14 13
5 5 5 5 5 4 5 4 5 5 5 6 6 5 5 4 3 3 3 3 4 4 5 4 3 3 5 5 5 6 6 7 9 17 18 18 17 17 16 15 15 14 14
5 5 5 5 5 5 5 5 6 6 6 6 6 5 5 4 4 3 3 4 4 4 5 5 3 3 5 5 5 6 5 6 6 14 18 18 17 17 16 16 15 15 15
5 5 5 5 5 5 5 5 6 7 7 7 6 5 5 5 4 3 3 3 3 4 3 4 4 3 3 3 4 4 4 4 5 9 15 16 16 17 17 16 16 16 16
5 5 5 5 5 5 4 5 6 7 7 7 7 6 5 3 3 3 3 3 3 3 3 3 4 3 3 3 4 3 3 4 4 4 7 9 12 16 17 17 17 17 17
6 5 5 5 5 4 4 5 6 8 8 8 7 6 5 4 4 3 3 3 3 3 3 3 3 3 3 3 4 4 4 3 4 4 4 6 7 7 10 14 17 19 18
5 4 4 4 5 4 3 4 5 6 7 8 7 6 6 5 4 5 7 7 6 4 4 3 3 4 5 5 4 4 4 4 4 4 5 5 6 8 8 8 14 19 19
4 3 4 4 4 4 4 5 8 6 7 7 6 5 6 6 5 4 5 6 7 9 9 5 5 5 5 4 5 5 5 5 4 4 5 5 6 7 6 9 18 20 21
3 3 4 4 4 4 4 4 8 6 6 6 6 4 4 4 4 4 5 6 5 5 5 5 6 6 4 4 4 5 5 4 2 2 4 4 4 4 5 7 17 20 20
3 4 4 4 4 4 3 2 5 5 5 6 5 4 4 3 4 6 5 6 5 5 5 6 7 7 7 7 4 3 4 4 3 2 2 3 3 3 3 5 10 18 19
4 4 5 5 5 4 5 4 3 3 5 5 5 4 3 3 5 6 4 5 5 5 5 5 5 6 6 6 8 7 6 5 3 3 3 4 4 4 2 1 4 9 11
Wind_Direction
245 240 226 211 206 199 200 205 218 232 254 270 276 274 270 228 187 163 158 170 171 172 174 178 179 179 180 176 170 168 167 164 164 159 157 153 149 146 140 138 136 133 132
245 247 235 223 217 206 199 203 211 222 240 263 279 290 294 278 210 163 164 178 178 177 179 183 186 187 187 187 184 180 177 172 169 164 161 157 154 150 148 145 143 142 140
267 258 260 253 230 212 205 200 209 214 231 254 270 276 284 293 279 205 173 172 180 186 185 187 188 189 190 192 191 186 181 177 174 170 167 163 160 159 158 157 155 154 151
333 312 276 268 256 226 205 202 201 203 215 225 247 257 270 286 288 283 212 183 178 184 192 192 188 188 190 193 193 190 187 181 178 176 173 169 166 166 166 167 165 162 159
334 333 318 291 279 255 226 225 208 198 207 210 222 237 249 259 272 281 274 225 188 175 177 193 190 187 188 192 194 194 191 188 185 182 178 174 172 173 173 174 172 171 171
331 328 317 321 325 305 263 247 237 212 206 206 215 224 226 237 248 255 264 271 220 182 177 180 184 192 192 191 194 195 195 192 191 189 187 182 179 179 181 182 180 181 182
345 333 331 325 321 310 289 267 251 236 223 201 192 220 237 238 246 251 257 264 261 216 178 172 178 181 191 198 195 194 196 196 195 194 193 190 186 185 187 188 189 190 192
355 350 348 335 321 309 301 295 268 249 249 204 183 173 203 226 238 237 243 251 252 232 190 183 186 185 180 181 197 195 195 196 198 197 197 195 192 192 193 195 197 197 199
14 4 348 343 335 333 312 300 278 260 254 241 208 196 189 207 202 223 230 236 241 240 221 193 195 194 182 180 185 195 193 192 197 200 200 198 196 196 197 199 201 202 203
22 12 356 348 340 342 335 318 322 272 254 257 249 232 235 242 184 213 238 234 237 238 232 226 211 201 190 182 182 186 190 190 194 199 201 201 200 200 200 202 204 204 204
12 28 3 346 342 344 343 336 332 313 267 251 247 245 243 244 231 210 227 227 234 237 231 226 227 220 200 186 182 185 187 188 191 197 201 202 203 203 204 204 206 206 206
0 20 3 347 344 347 337 330 322 311 293 275 263 249 237 230 218 212 223 222 219 231 229 225 226 224 207 186 196 185 185 187 190 193 197 200 203 205 206 206 206 207 206
354 360 355 336 334 333 325 327 324 308 293 282 268 253 244 242 244 235 228 235 234 232 221 228 222 220 218 194 188 179 188 189 190 192 193 196 199 203 206 207 206 206 205
340 348 341 323 323 333 331 328 314 312 315 306 288 276 253 247 244 233 222 220 234 238 228 232 223 215 214 197 188 179 189 191 191 191 192 194 196 199 202 205 207 206 204
331 338 320 321 326 329 327 335 329 323 323 308 295 285 268 252 245 240 232 216 206 220 232 225 219 219 209 195 173 187 181 193 192 192 193 194 195 196 198 200 201 200 199
308 308 323 329 330 340 349 358 338 329 326 311 295 285 282 265 254 246 241 235 218 211 233 232 216 215 206 204 183 190 194 190 194 194 195 195 194 194 196 197 196 194 192
333 339 335 326 330 347 359 356 338 331 326 318 315 311 306 292 273 259 250 243 235 217 231 248 233 222 206 209 193 197 198 186 195 198 197 196 195 195 194 193 192 189 187
335 327 327 330 341 357 1 348 337 335 326 321 314 315 311 305 291 276 264 253 245 231 221 237 237 220 216 207 198 200 200 196 191 197 198 197 196 194 193 191 188 186 183
332 326 331 342 347 352 356 350 349 341 331 319 314 314 311 313 308 301 291 273 260 254 237 233 237 222 215 202 199 206 205 199 201 193 196 198 197 194 191 188 185 183 181
321 322 338 340 342 345 355 3 353 333 322 318 316 310 308 314 315 319 308 302 292 274 259 245 238 227 214 200 188 196 206 203 204 189 191 194 196 195 191 187 184 180 177
326 335 341 335 340 335 13 13 343 326 321 316 313 312 316 309 297 289 294 305 310 287 267 252 244 234 216 196 201 194 200 198 208 185 176 186 185 192 193 190 185 179 174
302 312 323 324 325 333 2 346 333 318 310 308 310 315 313 293 295 287 274 268 261 262 263 256 254 242 231 216 200 194 193 190 209 192 184 193 182 189 190 190 184 177 173
287 300 297 303 308 308 283 308 325 314 295 295 300 305 313 321 342 335 318 294 271 255 244 245 255 252 246 228 204 200 202 200 206 184 177 200 189 193 185 183 176 174 171
291 295 289 286 289 292 268 293 322 306 294 294 294 299 307 324 3 357 328 310 292 278 256 241 244 254 254 244 215 204 201 206 202 187 174 189 184 185 174 175 175 172 169
275 280 284 279 277 276 221 256 319 305 301 305 312 330 333 333 357 351 321 305 305 300 285 267 259 260 258 246 216 183 184 184 197 197 172 165 157 141 152 172 172 169 165
264 269 273 266 262 265 202 210 284 297 307 314 317 319 336 343 340 338 316 307 308 309 316 300 276 262 251 232 216 205 194 187 177 184 177 159 147 134 132 130 162 167 163